Flag for Israel Weather past 2 weeks in Tel Aviv, Israel

Now
73 °F

Passing clouds.


Feels Like: 77 °F
Forecast: 71 / 89 °F
Wind: 5 mph from South

Location: Ben Gurion International Airport


UV Index: 7 (High)

Visibility: N/A


Pressure: 29.95 "Hg

Humidity: 38%

Dew point: 46 °F

Location of Tel AvivLocation

Historic Weather in Tel Aviv

°F

Tel Aviv temperature yesterday

Maximum temperature yesterday: 77 °F (at 11:20 AM)
Minimum temperature yesterday: 61 °F (at 2:50 AM)
Average temperature yesterday: 69 °F

Past Weeks' High & Low Weather Summary

 TemperatureHumidityPressure
High88 °F (Apr 6, 1:20 PM)88% (Apr 5, 2:50 AM)30.15 "Hg (Apr 5, 2:50 AM)
Low52 °F (Apr 5, 5:50 AM)20% (Apr 6, 11:50 AM)29.80 "Hg (Apr 16, 2:50 AM)
Average67 °F60%29.97 "Hg
* Reported Apr 3 8:20 AM — Apr 18 8:50 AM, Tel Aviv, Weather by CustomWeather, © 2014

Note: Actual official high and low records may vary slightly from our data, if they occured in-between our weather recording intervals... More about our weather records

Advertising

Historic Weather Conditions — Data for Previous 24 hours

 ConditionsComfort  
Time TempWeatherWind HumidityBarometerVisibility
8:50 AM
Apr 18
70 °FSunny.3 mph50%29.95 "Hg10 mi
8:20 AM66 °FSunny.7 mph64%29.95 "Hg10 mi
7:50 AM64 °FSunny.6 mph73%29.95 "Hg10 mi
7:20 AM63 °FSunny.3 mph77%29.95 "Hg10 mi
6:50 AM61 °FClear.2 mph83%29.92 "Hg10 mi
6:20 AM61 °FClear.3 mph83%29.92 "Hg10 mi
5:50 AM61 °FClear.5 mph83%29.92 "Hg10 mi
5:20 AM61 °FClear.7 mph83%29.92 "Hg10 mi
4:50 AM61 °FClear.7 mph83%29.89 "Hg10 mi
4:20 AM61 °FPassing clouds.7 mph83%29.89 "HgN/A
3:50 AM61 °FPassing clouds.6 mph83%29.92 "HgN/A
3:20 AM61 °FPassing clouds.6 mph83%29.92 "HgN/A
2:20 AM63 °FPassing clouds.6 mph77%29.92 "HgN/A
1:50 AM63 °FPassing clouds.6 mph77%29.92 "HgN/A
1:20 AM63 °FPassing clouds.5 mph77%29.92 "HgN/A
12:50 AM64 °FPassing clouds.3 mph78%29.92 "HgN/A
12:20 AM63 °FPassing clouds.No wind88%29.92 "HgN/A
11:50 PM
Apr 17
63 °FPassing clouds.2 mph83%29.89 "HgN/A
11:20 PM64 °FPassing clouds.3 mph78%29.89 "HgN/A
10:50 PM64 °FPassing clouds.2 mph78%29.89 "HgN/A
10:20 PM64 °FPassing clouds.5 mph83%29.89 "HgN/A
9:50 PM64 °FPassing clouds.3 mph78%29.89 "HgN/A
9:20 PM66 °FPassing clouds.6 mph73%29.89 "HgN/A
8:50 PM66 °FPassing clouds.5 mph73%29.89 "HgN/A
7:50 PM68 °FSunny.6 mph69%29.86 "Hg10 mi
7:20 PM68 °FSunny.7 mph64%29.86 "Hg10 mi
6:50 PM70 °FSunny.7 mph60%29.86 "Hg10 mi
6:20 PM70 °FSunny.12 mph60%29.86 "Hg10 mi
5:50 PM72 °FSunny.12 mph57%29.86 "Hg10 mi
5:20 PM72 °FSunny.12 mph65%29.86 "Hg10 mi
4:50 PM72 °FSunny.13 mph61%29.83 "Hg10 mi
4:20 PM73 °FSunny.14 mph57%29.83 "Hg10 mi
3:50 PM73 °FSunny.13 mph57%29.83 "Hg10 mi
3:20 PM75 °FSunny.12 mph54%29.83 "Hg10 mi
2:50 PM75 °FSunny.12 mph50%29.83 "Hg10 mi
2:20 PM75 °FPassing clouds.10 mph50%29.83 "HgN/A
1:50 PM75 °FPassing clouds.12 mph44%29.83 "HgN/A
1:20 PM75 °FPassing clouds.9 mph41%29.83 "HgN/A
12:50 PM77 °FPassing clouds.13 mph44%29.86 "HgN/A
12:20 PM75 °FPassing clouds.10 mph50%29.86 "HgN/A
11:50 AM75 °FPassing clouds.10 mph61%29.86 "HgN/A
11:20 AM77 °FScattered clouds.6 mph57%29.86 "HgN/A
10:50 AM75 °FPassing clouds.5 mph54%29.86 "HgN/A
10:20 AM73 °FPassing clouds.6 mph61%29.86 "HgN/A
Weather by CustomWeather, © 2014

See weather overview